EHI
4 10 18 18 12 7 7 8 8 6 5 4 2 1 1 2 4 4 2 1 0 0 0 0 1 1 1 0 0 0 0 0 0 0 0 0 0 0 0 0 0 0 0
4 11 19 20 14 9 8 9 9 7 5 4 3 2 2 2 4 6 4 1 0 0 0 0 0 0 0 0 0 0 0 0 0 0 0 0 0 0 0 0 0 0 0
5 11 19 21 18 14 11 11 10 8 6 4 3 3 3 3 4 6 5 2 0 0 0 0 0 0 0 0 0 0 0 0 0 0 0 0 0 0 0 0 0 0 0
4 9 15 20 20 17 14 12 11 9 7 6 4 3 3 3 3 3 3 2 1 0 0 0 0 0 0 0 0 0 0 0 0 0 0 0 0 0 0 0 0 0 0
4 7 12 17 19 16 14 13 12 11 10 8 6 5 4 3 2 2 2 1 1 1 0 0 0 0 0 0 0 0 0 0 0 0 0 0 0 0 0 0 0 0 0
3 5 9 14 16 15 12 12 12 12 10 8 7 7 6 3 1 1 1 1 1 1 1 0 0 0 0 0 0 0 0 0 0 0 0 0 0 0 0 0 0 0 0
4 4 7 10 13 13 11 10 11 11 10 9 8 8 6 3 2 1 1 1 1 1 1 1 0 0 0 0 0 0 0 0 0 0 0 0 0 0 0 0 0 0 0
5 5 6 8 10 11 11 10 10 10 10 10 9 8 6 5 3 3 2 2 1 0 1 1 0 0 0 0 0 0 0 0 0 0 0 0 0 0 0 0 0 0 0
6 6 6 6 7 8 8 9 9 9 9 10 10 9 7 6 4 3 3 3 1 1 0 0 0 0 0 0 0 0 0 0 0 0 0 0 0 0 0 0 0 0 0
5 5 6 6 5 5 5 6 6 6 7 7 7 7 6 5 4 3 3 3 3 2 1 1 1 1 0 0 0 0 0 0 0 0 0 0 0 0 0 0 0 0 0
4 4 5 5 5 5 4 3 4 4 4 4 4 3 3 3 2 2 2 3 3 3 2 2 2 2 0 0 0 0 0 0 0 0 0 0 0 0 0 0 0 0 0
3 3 4 4 5 5 4 3 3 3 3 3 2 1 1 1 1 1 1 1 2 2 1 1 1 1 0 1 1 0 0 0 0 0 0 0 0 0 0 0 0 0 0
3 3 3 4 5 5 4 3 3 3 3 4 3 2 2 2 1 0 0 1 1 2 1 1 1 0 0 1 1 0 0 0 0 0 0 0 0 0 0 0 0 0 0
4 3 3 4 5 5 4 3 3 3 4 4 4 2 3 2 1 0 1 2 2 3 3 2 1 0 0 1 1 0 0 0 0 0 0 0 0 0 0 0 0 0 0
5 4 4 4 4 5 4 3 3 3 3 3 3 3 3 2 1 0 1 2 3 3 2 2 1 0 0 0 0 0 0 0 0 0 0 0 0 0 0 0 0 0 0
6 6 6 5 5 4 4 3 3 2 2 2 2 3 3 2 1 0 1 2 3 2 1 0 0 0 0 0 0 0 0 0 0 0 0 0 0 0 0 0 0 0 0
4 5 5 6 6 5 4 4 3 2 1 1 1 2 2 1 0 0 0 1 2 1 0 0 0 0 0 0 0 0 0 0 0 0 0 0 0 0 0 0 0 0 0
1 2 3 4 5 6 5 4 3 2 2 1 1 2 1 0 0 0 0 0 0 0 0 0 0 0 0 0 0 0 0 0 0 0 0 0 0 0 0 0 0 0 0
0 1 2 3 4 5 6 5 3 3 3 3 3 2 1 0 0 0 0 0 0 0 0 0 0 0 0 0 0 0 0 0 0 0 0 0 0 0 0 0 0 0 0
0 0 1 3 3 4 4 4 3 3 3 3 3 3 1 0 0 0 0 0 0 0 0 0 0 0 0 0 0 0 0 0 0 0 0 0 0 0 0 0 0 0 0
0 0 1 2 3 3 2 1 2 3 3 3 3 3 2 1 0 0 0 0 0 0 0 0 0 0 0 0 0 0 0 0 0 0 0 0 0 0 0 0 0 0 0
0 0 1 2 3 2 1 0 1 2 3 3 3 3 3 2 1 0 0 0 0 0 0 0 0 0 0 0 0 0 0 0 0 0 0 0 0 0 0 0 0 0 0
0 0 1 2 3 2 0 0 0 1 1 2 3 3 3 3 2 1 0 0 0 0 0 0 0 0 0 0 0 0 0 0 0 0 0 0 0 0 0 0 0 0 0
0 0 1 2 3 2 1 0 0 0 0 1 1 2 2 3 2 1 0 0 0 0 0 0 0 0 0 0 0 0 0 0 0 0 0 0 0 0 0 0 0 0 0
0 0 1 2 3 2 1 0 0 0 0 0 0 1 1 1 1 1 0 0 0 0 0 0 0 0 0 0 0 0 0 0 0 0 0 0 0 0 0 0 0 0 0
0 0 0 1 3 2 1 0 0 0 0 0 0 0 0 0 1 0 0 0 0 0 0 0 0 0 0 0 0 0 0 0 0 0 0 0 0 0 0 0 0 0 0
Wind_Speed
3 3 4 5 6 7 7 7 8 8 8 8 8 8 8 9 9 9 9 9 9 9 9 9 9 10 10 11 11 10 10 11 11 10 11 11 11 12 11 9 8 9 11
3 4 5 5 6 7 7 7 8 8 8 7 7 7 8 8 9 9 9 9 9 9 9 9 10 10 10 11 10 10 10 11 10 10 9 10 10 11 10 9 9 8 10
4 5 6 5 6 6 7 7 7 7 8 7 6 6 7 7 8 9 9 8 8 8 8 9 9 10 10 10 10 10 10 10 9 7 4 6 8 9 10 9 9 9 9
4 5 5 5 6 6 7 7 7 7 7 7 6 6 6 7 7 8 8 8 8 8 8 9 9 10 10 10 9 9 9 9 7 3 3 5 6 8 8 8 8 8 8
4 4 5 5 6 6 7 7 7 7 7 6 6 6 6 6 6 7 7 8 8 8 8 8 9 9 9 9 9 9 8 7 5 2 5 5 5 7 7 7 7 7 7
4 4 5 5 6 6 6 6 6 6 7 6 6 6 6 6 6 6 7 7 7 7 8 8 8 8 8 8 8 8 7 6 2 3 4 4 5 6 5 6 6 6 5
3 3 5 4 5 5 6 6 6 6 6 6 5 5 5 5 5 5 6 6 7 7 7 7 7 7 8 8 7 7 7 4 2 3 3 4 5 5 5 5 5 4 4
3 3 4 3 4 5 5 5 5 5 5 6 5 5 5 5 5 5 6 6 6 6 7 7 7 6 7 7 7 6 6 3 3 3 3 4 6 5 4 4 4 3 3
3 3 3 3 3 4 4 4 5 5 5 5 5 5 5 4 4 5 5 5 6 6 6 6 6 6 6 6 6 6 5 3 2 3 3 3 5 4 4 4 3 3 3
3 2 2 2 2 3 3 4 4 5 5 5 5 5 5 5 4 5 5 5 5 5 5 5 5 5 6 6 5 5 4 1 2 2 2 3 4 3 3 3 3 3 2
2 1 1 1 2 2 2 3 4 5 5 5 5 6 4 3 3 3 5 5 5 5 5 5 5 5 5 5 5 4 2 1 1 1 1 4 3 2 3 2 3 3 2
2 1 1 1 1 1 1 2 2 2 3 3 2 3 2 2 2 3 6 5 5 5 4 5 5 4 2 2 3 2 1 1 1 1 2 4 2 2 2 2 2 2 2
3 2 0 0 0 1 1 1 1 1 2 2 2 2 2 2 1 1 2 2 3 2 2 3 2 1 1 1 1 1 0 0 0 1 2 3 2 2 2 2 2 2 2
3 2 1 1 1 1 1 1 1 2 1 1 1 1 1 1 1 1 1 1 1 1 1 1 1 1 1 1 1 1 0 0 0 0 2 3 2 2 2 2 2 2 3
3 2 1 1 1 1 1 1 1 1 2 2 1 1 1 1 1 1 1 1 1 1 0 0 0 1 1 1 1 1 0 0 0 0 1 3 2 3 3 3 3 4 4
3 2 2 2 2 2 1 1 1 1 1 2 2 1 1 1 1 1 1 1 1 1 0 0 0 1 1 1 1 1 1 0 1 1 0 1 2 3 3 4 4 5 5
4 3 3 2 2 2 2 2 2 2 2 2 2 2 2 1 1 1 1 1 1 1 1 0 0 1 1 1 1 1 1 1 1 1 1 1 0 1 2 3 4 4 5
4 3 3 2 3 2 2 2 2 2 2 2 2 2 3 2 2 1 1 1 1 1 1 1 1 1 1 2 1 1 1 1 2 2 1 1 1 1 0 2 4 4 5
4 4 3 3 3 3 2 2 2 2 2 2 2 2 2 2 2 2 1 1 1 1 1 1 1 1 1 2 2 2 2 2 2 2 2 2 2 2 2 1 2 3 4
3 3 3 3 3 3 3 2 2 2 2 1 1 2 2 2 3 2 2 2 2 2 2 2 2 2 1 2 2 2 2 2 2 3 3 3 2 2 2 3 2 2 3
3 3 3 3 3 3 3 3 3 2 2 2 1 2 2 3 3 3 2 2 2 2 2 3 2 2 1 1 2 2 2 3 3 3 3 3 3 2 2 3 3 3 2
3 4 4 4 3 4 3 3 2 2 2 2 1 2 2 3 3 3 3 3 3 3 3 3 3 2 1 1 2 2 3 3 3 3 2 3 3 3 3 3 3 4 3
3 4 3 4 4 4 4 3 2 2 1 2 2 2 2 3 3 3 3 3 3 3 3 3 3 3 2 2 2 2 3 3 1 3 3 3 3 3 3 3 4 4 4
4 3 3 3 3 3 4 4 5 3 3 3 2 2 2 2 2 2 3 3 3 2 3 3 3 3 3 2 2 2 3 3 3 2 3 3 3 4 4 3 3 4 4
2 2 2 2 2 3 3 4 4 4 3 2 2 2 2 1 1 2 2 2 2 2 2 2 2 2 2 2 2 2 2 3 4 4 4 3 3 3 3 4 3 3 3
1 1 1 2 2 3 3 3 4 4 4 3 3 2 2 1 1 1 2 2 2 2 2 2 2 3 2 3 3 3 3 3 3 4 5 4 4 3 4 3 3 3 3
Wind_Direction
144 140 124 125 116 113 112 110 109 109 112 111 111 113 113 110 109 109 107 104 101 98 96 95 94 94 94 94 93 88 84 82 81 81 83 86 87 86 82 77 79 82 78
144 147 127 128 120 116 115 114 110 109 109 110 112 113 114 111 111 106 104 103 102 99 97 97 94 94 92 92 92 89 86 82 79 77 85 92 88 86 82 73 65 77 79
138 142 137 127 125 120 115 113 111 108 107 110 114 113 114 113 112 109 106 101 99 99 98 96 95 94 93 91 89 89 87 83 81 76 88 97 92 85 83 78 77 77 78
138 141 137 126 128 124 120 117 115 113 110 110 114 115 117 117 113 113 109 104 98 95 96 97 96 95 91 89 87 87 86 84 81 81 89 83 90 86 85 82 80 76 73
135 139 123 123 128 126 122 118 117 118 118 112 111 115 121 124 120 118 115 110 103 97 96 97 98 98 94 89 86 84 82 83 79 89 81 81 84 84 82 81 79 76 72
137 138 119 116 129 127 123 122 121 118 118 116 109 109 117 122 123 120 117 113 108 104 101 97 98 100 97 94 90 86 83 77 108 87 80 79 82 82 80 80 78 74 70
136 127 123 113 122 124 122 120 119 118 115 110 106 104 107 108 107 114 115 115 115 112 106 101 100 105 102 98 93 89 85 63 77 83 79 74 70 72 81 79 71 69 69
127 125 117 106 116 118 120 119 116 112 112 110 104 98 102 106 105 107 114 116 116 115 111 106 100 103 107 103 97 92 82 65 89 84 78 73 59 61 74 70 66 64 61
108 108 107 123 126 116 115 117 116 110 104 101 102 99 97 98 101 101 105 113 111 111 111 108 104 101 107 106 101 95 80 40 84 84 77 70 60 58 61 56 55 53 47
106 99 99 111 121 136 131 105 102 101 98 93 90 86 90 90 94 100 101 101 106 109 112 109 107 106 102 103 104 96 89 112 93 95 82 70 59 52 47 49 44 40 31
124 108 91 101 104 109 124 110 109 99 90 92 89 79 85 104 103 105 89 87 96 104 107 107 105 103 103 103 107 108 137 148 101 75 64 57 51 40 28 29 33 25 14
161 147 105 95 105 111 114 128 134 131 117 108 102 99 97 88 77 78 81 77 83 87 95 97 102 117 130 122 116 152 156 142 120 99 65 51 28 17 16 13 11 4 358
173 160 158 271 97 111 116 132 127 131 120 118 105 101 104 98 95 93 107 104 98 101 113 116 142 144 115 90 105 115 104 138 111 91 66 48 16 2 354 351 346 340 342
179 179 187 208 189 154 137 138 145 142 135 124 113 113 122 108 112 117 116 108 118 109 98 120 134 126 121 122 125 128 157 206 73 46 59 43 11 351 341 341 342 335 327
192 189 198 209 196 174 156 149 135 143 145 141 140 149 129 139 156 159 142 126 113 95 120 112 150 142 146 144 160 197 201 228 236 217 91 58 8 349 340 336 331 325 319
203 193 181 196 196 177 161 165 158 162 162 167 160 158 162 171 180 175 144 138 125 124 94 111 249 244 221 208 199 207 225 233 240 234 290 114 59 1 337 323 318 314 314
203 194 178 186 188 179 174 184 180 174 180 180 173 167 167 176 194 181 175 172 154 159 161 184 179 260 249 223 208 207 224 240 251 247 252 272 205 59 350 327 317 313 312
199 190 179 181 182 182 179 192 192 182 186 188 188 176 174 174 188 194 192 190 181 185 186 195 214 223 238 237 229 216 222 226 238 249 244 252 277 281 326 343 318 311 312
198 187 177 182 184 185 186 189 183 179 189 195 195 184 180 182 188 195 204 196 203 195 197 211 224 243 247 249 243 239 236 233 235 241 240 244 257 273 281 302 297 308 311
205 194 186 188 186 184 184 188 178 171 183 197 200 192 188 192 195 199 200 194 202 205 207 212 218 242 247 261 251 244 244 244 243 243 246 244 248 258 270 277 263 267 290
202 201 198 191 185 185 191 196 194 195 196 198 208 208 204 204 196 198 197 192 201 208 214 215 216 224 233 249 248 243 235 236 241 241 245 246 246 256 268 273 275 280 265
209 209 210 204 197 201 206 206 210 205 209 210 208 219 216 213 205 200 197 196 201 207 210 209 210 220 227 239 258 255 240 217 214 229 239 247 256 263 265 273 279 277 284
220 219 218 211 208 208 201 186 170 178 190 199 213 221 224 220 210 207 202 200 201 205 207 213 217 220 223 231 254 264 261 251 240 211 232 242 256 266 271 274 276 278 282
228 223 224 217 215 209 197 192 186 193 204 214 210 206 214 217 205 197 199 197 202 211 211 214 222 228 227 224 231 253 281 301 273 253 219 236 260 269 275 277 273 274 278
233 221 227 220 217 206 201 201 201 207 209 197 190 187 193 196 201 193 195 193 201 206 213 213 215 224 233 240 240 238 245 260 265 268 263 256 258 261 276 279 273 275 281
214 204 218 219 221 211 199 203 210 208 203 195 195 193 198 193 197 198 199 192 204 206 212 219 217 221 225 238 245 244 246 248 250 257 268 275 272 270 274 269 267 270 278